• In Hungary
  • List of Countries
  • For 7 days
  • Water Temperature
  • Satellite Maps
  • Weather Map
  • News
  • Weather Widgets
  • user-avatar
    Login

    Hourly Weather Sankt Polten

    Today, 27 May, Sunday

    Time Temperature Precipitation Wind Pressure Humidity
    00:00 +16°C° 0 mm 1 mps 740 mmHg 90%
    01:00 +16°C° 0 mm 1 mps 739 mmHg 90%
    02:00 +16°C° 0 mm 1 mps 739 mmHg 90%
    03:00 +16°C° 0 mm 1 mps 739 mmHg 91%
    04:00 +15°C° 0 mm 1 mps 739 mmHg 92%
    05:00 +18°C° 0 mm 1 mps 739 mmHg 87%
    06:00 +20°C° 0 mm 1 mps 739 mmHg 81%
    07:00 +22°C° 0 mm 1 mps 739 mmHg 73%
    08:00 +23°C° 0 mm 1 mps 739 mmHg 68%
    09:00 +25°C° 0 mm 2 mps 739 mmHg 62%
    10:00 +26°C° 0 mm 2 mps 739 mmHg 56%
    11:00 +27°C° 0.1 mm 2 mps 739 mmHg 54%
    12:00 +27°C° 0.1 mm 3 mps 739 mmHg 52%
    13:00 +28°C° 0 mm 2 mps 739 mmHg 53%
    14:00 +28°C° 0.7 mm 2 mps 739 mmHg 59%
    15:00 +27°C° 0.7 mm 2 mps 738 mmHg 65%
    16:00 +26°C° 0.7 mm 2 mps 738 mmHg 71%
    17:00 +25°C° 0.2 mm 2 mps 738 mmHg 76%
    18:00 +24°C° 0.2 mm 2 mps 738 mmHg 81%
    19:00 +21°C° 0.2 mm 2 mps 738 mmHg 85%
    20:00 +21°C° 0.3 mm 2 mps 738 mmHg 88%
    21:00 +21°C° 0.3 mm 1 mps 738 mmHg 90%
    22:00 +20°C° 0.3 mm 1 mps 738 mmHg 92%
    23:00 +19°C° 0.1 mm 1 mps 738 mmHg 92%

    Tomorrow, 28 May, Monday

    Time Temperature Precipitation Wind Pressure Humidity
    00:00 +19°C° 0.1 mm 1 mps 738 mmHg 93%
    01:00 +19°C° 0.1 mm 1 mps 738 mmHg 93%
    02:00 +18°C° 0 mm 1 mps 738 mmHg 94%
    03:00 +18°C° 0 mm 1 mps 738 mmHg 94%
    04:00 +18°C° 0 mm 1 mps 738 mmHg 95%
    05:00 +19°C° 0 mm 1 mps 738 mmHg 91%
    06:00 +20°C° 0 mm 1 mps 738 mmHg 87%
    07:00 +22°C° 0 mm 1 mps 738 mmHg 83%
    08:00 +24°C° 0 mm 2 mps 738 mmHg 75%
    09:00 +26°C° 0 mm 2 mps 738 mmHg 67%
    10:00 +27°C° 0 mm 3 mps 738 mmHg 59%
    11:00 +28°C° 0.3 mm 3 mps 738 mmHg 58%
    12:00 +29°C° 0.3 mm 4 mps 738 mmHg 56%
    13:00 +29°C° 0.3 mm 4 mps 738 mmHg 55%
    14:00 +29°C° 0.4 mm 4 mps 737 mmHg 56%
    15:00 +29°C° 0.4 mm 4 mps 737 mmHg 57%
    16:00 +28°C° 0.4 mm 4 mps 737 mmHg 58%
    17:00 +27°C° 0 mm 3 mps 737 mmHg 64%
    18:00 +26°C° 0 mm 3 mps 736 mmHg 71%
    19:00 +24°C° 0 mm 3 mps 736 mmHg 77%
    20:00 +22°C° 0 mm 3 mps 737 mmHg 80%
    21:00 +21°C° 0 mm 3 mps 737 mmHg 83%
    22:00 +20°C° 0 mm 2 mps 737 mmHg 86%
    23:00 +19°C° 0 mm 2 mps 737 mmHg 88%

    Day after tomorrow, 29 May, Tuesday

    Time Temperature Precipitation Wind Pressure Humidity
    00:00 +19°C° 0 mm 2 mps 737 mmHg 90%
    01:00 +18°C° 0 mm 2 mps 737 mmHg 92%
    02:00 +18°C° 0 mm 2 mps 737 mmHg 92%
    03:00 +18°C° 0 mm 2 mps 736 mmHg 93%
    04:00 +18°C° 0 mm 2 mps 736 mmHg 94%
    05:00 +19°C° 0 mm 2 mps 736 mmHg 89%
    06:00 +20°C° 0 mm 2 mps 736 mmHg 84%
    07:00 +23°C° 0 mm 2 mps 736 mmHg 79%
    08:00 +25°C° 0 mm 3 mps 736 mmHg 71%
    09:00 +26°C° 0 mm 3 mps 736 mmHg 63%
    10:00 +28°C° 0 mm 4 mps 736 mmHg 55%
    11:00 +28°C° 0.2 mm 4 mps 736 mmHg 55%
    12:00 +29°C° 0.2 mm 4 mps 736 mmHg 54%
    13:00 +29°C° 0.2 mm 4 mps 735 mmHg 54%
    14:00 +29°C° 0.2 mm 4 mps 735 mmHg 55%
    15:00 +28°C° 0.2 mm 4 mps 735 mmHg 56%
    16:00 +28°C° 0.2 mm 4 mps 734 mmHg 57%
    17:00 +27°C° 0 mm 4 mps 734 mmHg 63%
    18:00 +25°C° 0 mm 3 mps 734 mmHg 69%
    19:00 +24°C° 0 mm 3 mps 734 mmHg 76%
    20:00 +22°C° 0 mm 3 mps 734 mmHg 78%
    21:00 +21°C° 0 mm 3 mps 734 mmHg 81%
    22:00 +20°C° 0 mm 2 mps 734 mmHg 84%
    23:00 +19°C° 0 mm 2 mps 734 mmHg 86%

    30 May, Wednesday

    Time Temperature Precipitation Wind Pressure Humidity
    00:00 +19°C° 0 mm 2 mps 734 mmHg 88%
    01:00 +18°C° 0 mm 2 mps 734 mmHg 90%
    02:00 +18°C° 0.1 mm 2 mps 734 mmHg 91%
    03:00 +18°C° 0.1 mm 1 mps 734 mmHg 93%
    04:00 +18°C° 0.1 mm 1 mps 733 mmHg 94%
    05:00 +19°C° 0.3 mm 1 mps 734 mmHg 89%
    06:00 +21°C° 0.3 mm 1 mps 734 mmHg 85%
    07:00 +22°C° 0.3 mm 1 mps 734 mmHg 81%
    08:00 +24°C° 0.1 mm 2 mps 734 mmHg 75%
    09:00 +25°C° 0.1 mm 2 mps 734 mmHg 69%
    10:00 +27°C° 0.1 mm 2 mps 734 mmHg 63%
    11:00 +27°C° 1 mm 2 mps 734 mmHg 63%
    12:00 +27°C° 1 mm 2 mps 733 mmHg 64%
    13:00 +28°C° 1 mm 2 mps 733 mmHg 65%
    14:00 +28°C° 1.4 mm 2 mps 733 mmHg 66%
    15:00 +27°C° 1.4 mm 1 mps 732 mmHg 67%
    16:00 +27°C° 1.4 mm 1 mps 732 mmHg 69%
    17:00 +26°C° 0.2 mm 1 mps 732 mmHg 73%
    18:00 +25°C° 0.2 mm 1 mps 732 mmHg 77%
    19:00 +23°C° 0.2 mm 1 mps 732 mmHg 82%
    20:00 +22°C° 0.3 mm 1 mps 732 mmHg 84%
    21:00 +21°C° 0.3 mm 1 mps 732 mmHg 86%
    22:00 +20°C° 0.3 mm 1 mps 732 mmHg 88%
    23:00 +20°C° 0.1 mm 1 mps 732 mmHg 89%

    31 May, Thursday

    Time Temperature Precipitation Wind Pressure Humidity
    00:00 +19°C° 0.1 mm 1 mps 731 mmHg 89%
    01:00 +19°C° 0.1 mm 1 mps 731 mmHg 89%
    02:00 +19°C° 0.1 mm 1 mps 731 mmHg 89%
    03:00 +18°C° 0.1 mm 1 mps 731 mmHg 89%
    04:00 +18°C° 0.1 mm 1 mps 731 mmHg 90%
    05:00 +20°C° 0.1 mm 1 mps 731 mmHg 86%
    06:00 +21°C° 0.1 mm 1 mps 731 mmHg 82%
    07:00 +23°C° 0.1 mm 1 mps 732 mmHg 78%
    08:00 +24°C° 0.6 mm 1 mps 732 mmHg 74%
    09:00 +25°C° 0.6 mm 1 mps 732 mmHg 70%
    10:00 +26°C° 0.6 mm 2 mps 732 mmHg 66%
    11:00 +27°C° 1 mm 2 mps 732 mmHg 65%
    12:00 +27°C° 1 mm 2 mps 731 mmHg 64%
    13:00 +28°C° 1 mm 2 mps 731 mmHg 63%
    14:00 +27°C° 0.8 mm 2 mps 731 mmHg 67%
    15:00 +27°C° 0.8 mm 2 mps 731 mmHg 70%
    16:00 +26°C° 0.8 mm 2 mps 731 mmHg 74%
    17:00 +25°C° 0.6 mm 2 mps 731 mmHg 78%
    18:00 +24°C° 0.6 mm 1 mps 731 mmHg 83%
    19:00 +23°C° 0.6 mm 1 mps 731 mmHg 88%
    20:00 +22°C° 0.7 mm 1 mps 731 mmHg 90%
    21:00 +21°C° 0.7 mm 1 mps 731 mmHg 92%
    22:00 +20°C° 0.7 mm 1 mps 732 mmHg 94%
    23:00 +19°C° 0.2 mm 1 mps 732 mmHg 94%

    1 June, Friday

    Time Temperature Precipitation Wind Pressure Humidity
    00:00 +19°C° 0.2 mm 1 mps 732 mmHg 95%
    01:00 +18°C° 0.2 mm 1 mps 732 mmHg 96%
    02:00 +18°C° 0.1 mm 1 mps 732 mmHg 96%
    03:00 +18°C° 0.1 mm 1 mps 732 mmHg 96%
    04:00 +18°C° 0.1 mm 1 mps 733 mmHg 96%
    05:00 +17°C° 0 mm 2 mps 733 mmHg 95%
    06:00 +18°C° 0 mm 2 mps 733 mmHg 93%
    07:00 +18°C° 0 mm 3 mps 734 mmHg 92%
    08:00 +18°C° 0.1 mm 3 mps 734 mmHg 90%
    09:00 +18°C° 0.1 mm 3 mps 734 mmHg 88%
    10:00 +18°C° 0.1 mm 3 mps 735 mmHg 86%
    11:00 +20°C° 0 mm 3 mps 735 mmHg 77%
    12:00 +21°C° 0 mm 3 mps 735 mmHg 68%
    13:00 +22°C° 0 mm 3 mps 735 mmHg 60%
    14:00 +22°C° 0 mm 3 mps 735 mmHg 59%
    15:00 +22°C° 0 mm 3 mps 735 mmHg 59%
    16:00 +22°C° 0 mm 4 mps 735 mmHg 59%
    17:00 +21°C° 0 mm 3 mps 735 mmHg 64%
    18:00 +19°C° 0 mm 3 mps 735 mmHg 70%
    19:00 +18°C° 0 mm 2 mps 735 mmHg 76%
    20:00 +17°C° 0 mm 2 mps 736 mmHg 79%
    21:00 +15°C° 0 mm 2 mps 736 mmHg 82%
    22:00 +14°C° 0 mm 2 mps 737 mmHg 84%
    23:00 +13°C° 0 mm 2 mps 737 mmHg 86%
    Show more